Time,TemperatureF,DewpointF,PressureIn,WindDirection,WindDirectionDegrees,WindSpeedMPH,WindSpeedGustMPH,Humidity,HourlyPrecipIn,Conditions,Clouds,dailyrainin,SoftwareType,DateUTC
2013-10-29 00:06:00,36.9,35.0,30.34,NNE,19,0.0,0.0,92,0.00,,,0.00,weatherlink.com 1.10,2013-10-29 04:06:00,
2013-10-29 00:21:00,37.1,35.0,30.34,NNE,19,0.0,0.0,91,0.00,,,0.00,weatherlink.com 1.10,2013-10-29 04:21:00,
2013-10-29 00:36:00,36.6,35.0,30.34,NNE,19,0.0,0.0,93,0.00,,,0.00,weatherlink.com 1.10,2013-10-29 04:36:00,
2013-10-29 00:51:00,37.1,35.0,30.34,NNE,19,0.0,0.0,93,0.00,,,0.00,weatherlink.com 1.10,2013-10-29 04:51:00,
2013-10-29 01:06:00,36.9,35.0,30.34,NNE,19,0.0,0.0,92,0.00,,,0.00,weatherlink.com 1.10,2013-10-29 05:06:00,
2013-10-29 01:21:00,36.8,35.0,30.34,NNE,19,0.0,0.0,94,0.00,,,0.00,weatherlink.com 1.10,2013-10-29 05:21:00,
2013-10-29 01:36:00,36.7,35.0,30.34,NNE,19,0.0,0.0,93,0.00,,,0.00,weatherlink.com 1.10,2013-10-29 05:36:00,
2013-10-29 01:51:00,37.2,35.0,30.34,NNE,19,0.0,0.0,93,0.00,,,0.00,weatherlink.com 1.10,2013-10-29 05:51:00,
2013-10-29 02:06:00,36.6,35.0,30.34,NNE,19,0.0,0.0,92,0.00,,,0.00,weatherlink.com 1.10,2013-10-29 06:06:00,
2013-10-29 02:21:00,36.9,35.0,30.34,NNE,19,0.0,0.0,92,0.00,,,0.00,weatherlink.com 1.10,2013-10-29 06:21:00,
2013-10-29 02:36:00,37.0,35.0,30.35,NNE,19,0.0,0.0,92,0.00,,,0.00,weatherlink.com 1.10,2013-10-29 06:36:00,
2013-10-29 02:51:00,37.6,35.0,30.35,NNE,19,0.0,0.0,91,0.00,,,0.00,weatherlink.com 1.10,2013-10-29 06:51:00,
2013-10-29 03:06:00,38.3,35.0,30.35,NNE,19,0.0,0.0,89,0.00,,,0.00,weatherlink.com 1.10,2013-10-29 07:06:00,
2013-10-29 03:21:00,37.6,35.0,30.35,NNE,19,0.0,0.0,89,0.00,,,0.00,weatherlink.com 1.10,2013-10-29 07:21:00,
2013-10-29 03:36:00,36.8,35.0,30.35,NNE,19,0.0,0.0,91,0.00,,,0.00,weatherlink.com 1.10,2013-10-29 07:36:00,
2013-10-29 03:51:00,36.8,35.0,30.35,NNE,19,0.0,0.0,91,0.00,,,0.00,weatherlink.com 1.10,2013-10-29 07:51:00,
2013-10-29 04:06:00,36.9,34.0,30.35,NNE,19,0.0,0.0,90,0.00,,,0.00,weatherlink.com 1.10,2013-10-29 08:06:00,
2013-10-29 04:21:00,36.9,35.0,30.34,NNE,19,0.0,0.0,91,0.00,,,0.00,weatherlink.com 1.10,2013-10-29 08:21:00,
2013-10-29 04:36:00,36.1,34.0,30.35,NNE,19,0.0,0.0,92,0.00,,,0.00,weatherlink.com 1.10,2013-10-29 08:36:00,
2013-10-29 04:51:00,35.2,33.0,30.35,NNE,19,0.0,0.0,92,0.00,,,0.00,weatherlink.com 1.10,2013-10-29 08:51:00,
2013-10-29 05:06:00,35.4,34.0,30.34,NNE,19,0.0,0.0,93,0.00,,,0.00,weatherlink.com 1.10,2013-10-29 09:06:00,
2013-10-29 05:21:00,35.4,34.0,30.34,NNE,19,0.0,0.0,93,0.00,,,0.00,weatherlink.com 1.10,2013-10-29 09:21:00,
2013-10-29 05:36:00,35.7,34.0,30.34,NNE,28,0.0,0.0,92,0.00,,,0.00,weatherlink.com 1.10,2013-10-29 09:36:00,
2013-10-29 05:51:00,35.8,34.0,30.34,NNE,28,0.0,0.0,92,0.00,,,0.00,weatherlink.com 1.10,2013-10-29 09:51:00,
2013-10-29 06:06:00,34.8,33.0,30.36,NNE,28,0.0,0.0,93,0.00,,,0.00,weatherlink.com 1.10,2013-10-29 10:06:00,
2013-10-29 06:21:00,34.5,33.0,30.37,NNE,28,0.0,0.0,93,0.00,,,0.00,weatherlink.com 1.10,2013-10-29 10:21:00,
2013-10-29 06:36:00,34.3,33.0,30.36,NNE,28,0.0,0.0,95,0.00,,,0.00,weatherlink.com 1.10,2013-10-29 10:36:00,
2013-10-29 06:51:00,34.0,33.0,30.36,NNE,28,0.0,0.0,95,0.00,,,0.00,weatherlink.com 1.10,2013-10-29 10:51:00,
2013-10-29 07:06:00,34.0,33.0,30.36,NNE,28,0.0,0.0,96,0.00,,,0.00,weatherlink.com 1.10,2013-10-29 11:06:00,
2013-10-29 07:21:00,34.9,34.0,30.36,NNE,28,0.0,0.0,96,0.00,,,0.00,weatherlink.com 1.10,2013-10-29 11:21:00,
2013-10-29 07:36:00,35.2,34.0,30.37,NNE,28,0.0,0.0,94,0.00,,,0.00,weatherlink.com 1.10,2013-10-29 11:36:00,
2013-10-29 07:51:00,34.3,33.0,30.36,NNE,28,0.0,0.0,94,0.00,,,0.00,weatherlink.com 1.10,2013-10-29 11:51:00,
2013-10-29 08:06:00,33.9,33.0,30.37,NNE,28,0.0,0.0,95,0.00,,,0.00,weatherlink.com 1.10,2013-10-29 12:06:00,
2013-10-29 08:21:00,34.4,34.0,30.36,NNE,28,0.0,0.0,97,0.00,,,0.00,weatherlink.com 1.10,2013-10-29 12:21:00,
2013-10-29 08:36:00,34.4,33.0,30.37,NNE,28,0.0,0.0,96,0.00,,,0.00,weatherlink.com 1.10,2013-10-29 12:36:00,
2013-10-29 08:52:00,35.7,35.0,30.36,NNE,28,0.0,0.0,97,0.00,,,0.00,weatherlink.com 1.10,2013-10-29 12:52:00,
2013-10-29 09:06:00,36.3,36.0,30.36,NNE,28,0.0,0.0,97,0.00,,,0.00,weatherlink.com 1.10,2013-10-29 13:06:00,
2013-10-29 09:21:00,37.5,37.0,30.36,NE,50,0.0,1.0,98,0.00,,,0.00,weatherlink.com 1.10,2013-10-29 13:21:00,
2013-10-29 09:36:00,40.1,38.0,30.36,NE,50,0.0,1.0,93,0.00,,,0.00,weatherlink.com 1.10,2013-10-29 13:36:00,
2013-10-29 09:52:00,41.7,39.0,30.38,NNE,29,0.0,1.0,91,0.00,,,0.00,weatherlink.com 1.10,2013-10-29 13:52:00,
2013-10-29 10:07:00,43.1,40.0,30.39,NE,44,0.0,0.0,88,0.00,,,0.00,weatherlink.com 1.10,2013-10-29 14:07:00,
2013-10-29 10:22:00,44.4,41.0,30.39,NE,44,0.0,0.0,86,0.00,,,0.00,weatherlink.com 1.10,2013-10-29 14:22:00,
2013-10-29 10:37:00,45.5,41.0,30.38,NE,39,0.0,1.0,85,0.00,,,0.00,weatherlink.com 1.10,2013-10-29 14:37:00,
2013-10-29 10:52:00,46.7,42.0,30.38,East,86,0.0,1.0,82,0.00,,,0.00,weatherlink.com 1.10,2013-10-29 14:52:00,
2013-10-29 11:07:00,47.7,42.0,30.38,NE,51,0.0,2.0,79,0.00,,,0.00,weatherlink.com 1.10,2013-10-29 15:07:00,
2013-10-29 11:22:00,48.5,42.0,30.38,East,83,0.0,2.0,79,0.00,,,0.00,weatherlink.com 1.10,2013-10-29 15:22:00,
2013-10-29 11:37:00,49.3,43.0,30.37,NE,52,0.0,1.0,78,0.00,,,0.00,weatherlink.com 1.10,2013-10-29 15:37:00,
2013-10-29 11:52:00,50.1,42.0,30.37,ENE,66,0.0,2.0,74,0.00,,,0.00,weatherlink.com 1.10,2013-10-29 15:52:00,
2013-10-29 12:07:00,50.9,42.0,30.37,East,80,0.0,1.0,72,0.00,,,0.00,weatherlink.com 1.10,2013-10-29 16:07:00,
2013-10-29 12:22:00,51.5,43.0,30.37,ENE,70,1.0,1.0,73,0.00,,,0.00,weatherlink.com 1.10,2013-10-29 16:22:00,
2013-10-29 12:37:00,52.0,43.0,30.36,NE,50,0.0,1.0,71,0.00,,,0.00,weatherlink.com 1.10,2013-10-29 16:37:00,
2013-10-29 12:52:00,52.5,43.0,30.36,ENE,63,0.0,1.0,71,0.00,,,0.00,weatherlink.com 1.10,2013-10-29 16:52:00,
2013-10-29 13:07:00,52.7,43.0,30.36,East,82,0.0,1.0,70,0.00,,,0.00,weatherlink.com 1.10,2013-10-29 17:07:00,
2013-10-29 13:22:00,53.2,44.0,30.35,SE,144,0.0,1.0,70,0.00,,,0.00,weatherlink.com 1.10,2013-10-29 17:22:00,
2013-10-29 13:37:00,53.4,44.0,30.34,SE,143,0.0,0.0,70,0.00,,,0.00,weatherlink.com 1.10,2013-10-29 17:37:00,
2013-10-29 13:52:00,53.6,44.0,30.33,SSE,164,0.0,1.0,69,0.00,,,0.00,weatherlink.com 1.10,2013-10-29 17:52:00,
2013-10-29 14:07:00,54.1,44.0,30.32,South,190,0.0,1.0,69,0.00,,,0.00,weatherlink.com 1.10,2013-10-29 18:07:00,
2013-10-29 14:22:00,54.2,44.0,30.31,South,179,0.0,1.0,69,0.00,,,0.00,weatherlink.com 1.10,2013-10-29 18:22:00,
2013-10-29 14:38:00,55.1,45.0,30.30,ENE,60,0.0,1.0,69,0.00,,,0.00,weatherlink.com 1.10,2013-10-29 18:38:00,
2013-10-29 14:53:00,55.4,45.0,30.29,ENE,76,0.0,1.0,67,0.00,,,0.00,weatherlink.com 1.10,2013-10-29 18:53:00,
2013-10-29 15:08:00,55.7,45.0,30.28,ESE,102,0.0,1.0,68,0.00,,,0.00,weatherlink.com 1.10,2013-10-29 19:08:00,
2013-10-29 15:23:00,55.8,46.0,30.28,ENE,64,0.0,1.0,69,0.00,,,0.00,weatherlink.com 1.10,2013-10-29 19:23:00,
2013-10-29 15:38:00,56.4,45.0,30.29,ENE,64,0.0,1.0,67,0.00,,,0.00,weatherlink.com 1.10,2013-10-29 19:38:00,
2013-10-29 15:53:00,56.5,45.0,30.29,SE,131,0.0,1.0,65,0.00,,,0.00,weatherlink.com 1.10,2013-10-29 19:53:00,
2013-10-29 16:08:00,56.6,45.0,30.28,South,179,0.0,1.0,65,0.00,,,0.00,weatherlink.com 1.10,2013-10-29 20:08:00,
2013-10-29 16:23:00,56.4,45.0,30.27,SSE,159,0.0,1.0,67,0.00,,,0.00,weatherlink.com 1.10,2013-10-29 20:23:00,
2013-10-29 16:38:00,56.4,46.0,30.27,SW,223,0.0,0.0,68,0.00,,,0.00,weatherlink.com 1.10,2013-10-29 20:38:00,
2013-10-29 16:53:00,56.0,46.0,30.26,SW,222,0.0,0.0,69,0.00,,,0.00,weatherlink.com 1.10,2013-10-29 20:53:00,
2013-10-29 17:08:00,55.6,45.0,30.26,SE,135,0.0,2.0,68,0.00,,,0.00,weatherlink.com 1.10,2013-10-29 21:08:00,
2013-10-29 17:23:00,55.2,46.0,30.26,South,190,0.0,0.0,71,0.00,,,0.00,weatherlink.com 1.10,2013-10-29 21:23:00,
2013-10-29 17:38:00,54.8,46.0,30.26,ENE,62,0.0,1.0,71,0.00,,,0.00,weatherlink.com 1.10,2013-10-29 21:38:00,
2013-10-29 17:53:00,54.5,46.0,30.26,ENE,62,0.0,0.0,73,0.00,,,0.00,weatherlink.com 1.10,2013-10-29 21:53:00,
2013-10-29 18:08:00,54.0,45.0,30.26,ENE,62,0.0,0.0,72,0.00,,,0.00,weatherlink.com 1.10,2013-10-29 22:08:00,
2013-10-29 18:23:00,53.6,45.0,30.26,East,91,0.0,1.0,73,0.00,,,0.00,weatherlink.com 1.10,2013-10-29 22:23:00,
2013-10-29 18:38:00,53.0,45.0,30.28,East,91,0.0,0.0,74,0.00,,,0.00,weatherlink.com 1.10,2013-10-29 22:38:00,
2013-10-29 18:53:00,53.1,45.0,30.26,East,87,0.0,1.0,75,0.00,,,0.00,weatherlink.com 1.10,2013-10-29 22:53:00,
2013-10-29 19:23:00,52.5,45.0,30.25,ESE,109,0.0,3.0,77,0.00,,,0.00,weatherlink.com 1.10,2013-10-29 23:23:00,
2013-10-29 19:38:00,52.4,45.0,30.25,East,79,0.0,2.0,77,0.00,,,0.00,weatherlink.com 1.10,2013-10-29 23:38:00,
2013-10-29 19:53:00,52.4,45.0,30.25,East,82,0.0,1.0,77,0.00,,,0.00,weatherlink.com 1.10,2013-10-29 23:53:00,
2013-10-29 20:08:00,52.1,45.0,30.26,ENE,69,0.0,1.0,78,0.00,,,0.00,weatherlink.com 1.10,2013-10-30 00:08:00,
2013-10-29 20:23:00,51.8,46.0,30.26,ENE,62,0.0,1.0,80,0.00,,,0.00,weatherlink.com 1.10,2013-10-30 00:23:00,
2013-10-29 20:38:00,51.4,46.0,30.24,ENE,62,0.0,0.0,81,0.00,,,0.00,weatherlink.com 1.10,2013-10-30 00:38:00,
2013-10-29 20:53:00,51.6,46.0,30.25,ENE,62,0.0,0.0,81,0.00,,,0.00,weatherlink.com 1.10,2013-10-30 00:53:00,
2013-10-29 21:08:00,51.7,46.0,30.26,ENE,62,0.0,0.0,81,0.00,,,0.00,weatherlink.com 1.10,2013-10-30 01:08:00,
2013-10-29 21:23:00,51.6,46.0,30.26,ENE,63,0.0,0.0,82,0.00,,,0.00,weatherlink.com 1.10,2013-10-30 01:23:00,
2013-10-29 21:38:00,51.3,47.0,30.26,ENE,63,0.0,0.0,84,0.00,,,0.00,weatherlink.com 1.10,2013-10-30 01:38:00,
2013-10-29 21:53:00,51.1,47.0,30.26,ENE,62,0.0,0.0,85,0.00,,,0.00,weatherlink.com 1.10,2013-10-30 01:53:00,
2013-10-29 22:08:00,50.9,47.0,30.26,ENE,63,0.0,0.0,85,0.00,,,0.00,weatherlink.com 1.10,2013-10-30 02:08:00,
2013-10-29 22:23:00,50.9,47.0,30.26,ENE,62,0.0,0.0,86,0.00,,,0.00,weatherlink.com 1.10,2013-10-30 02:23:00,
2013-10-29 22:38:00,51.1,47.0,30.26,ENE,62,0.0,0.0,87,0.00,,,0.00,weatherlink.com 1.10,2013-10-30 02:38:00,
2013-10-29 22:53:00,50.9,48.0,30.25,ENE,63,0.0,0.0,90,0.00,,,0.00,weatherlink.com 1.10,2013-10-30 02:53:00,
2013-10-29 23:08:00,50.6,48.0,30.25,ENE,63,0.0,0.0,91,0.01,,,0.01,weatherlink.com 1.10,2013-10-30 03:08:00,
2013-10-29 23:23:00,50.4,49.0,30.24,ENE,63,0.0,0.0,93,0.01,,,0.01,weatherlink.com 1.10,2013-10-30 03:23:00,
2013-10-29 23:38:00,50.5,49.0,30.24,ENE,63,0.0,0.0,94,0.01,,,0.01,weatherlink.com 1.10,2013-10-30 03:38:00,
2013-10-29 23:54:00,50.4,49.0,30.23,ENE,62,0.0,0.0,95,0.00,,,0.01,weatherlink.com 1.10,2013-10-30 03:54:00,